Location: Unspecified
(0.0000°N, 0.0000°E)
Time: 23:23:14
(UTC+00:00)

Courier 1B Rocket - Pass Details

Date: 05 October 2020
Orbit: 920 x 1202 km, 28.2° (Epoch: 28 October)

Event Time Altitude Azimuth Distance (km) Brightness Sun altitude
Rises 20:01:54 0° 211° (SSW) 4,065 8.7 -33.3°
Reaches altitude 10° 20:07:03 10° 183° (S) 3,128 7.7 -34.6°
Enters shadow 20:08:36 12° 172° (S) 2,996 7.5 -34.9°
Maximum altitude 20:09:58 12° 161° (SSE) 2,958 - -35.3°
Drops below altitude 10° 20:12:54 10° 138° (SE) 3,130 - -36.0°
Sets 20:18:02 0° 110° (ESE) 4,072 - -37.3°
